Weather History for KFMN - July, 2013

Change the Weather History Date:

Wednesday, July 17, 2013

  Actual Average Record
Temperature  
Mean Temperature 76 °F -  
Max Temperature 88 °F 91 °F 104 °F (2005)
Min Temperature 64 °F 60 °F 55 °F (1992)
Cooling Degree Days 11    
Growing Degree Days 26 (Base 50)    
Moisture  
Dew Point 47 °F    
Average Humidity 38    
Maximum Humidity 75    
Minimum Humidity 11    
Precipitation  
Precipitation 0.00 in - - ()
Sea Level Pressure  
Sea Level Pressure 30.08 in    
Wind  
Wind Speed 11 mph (SE)    
Max Wind Speed 20 mph    
Max Gust Speed 20 mph    
Visibility 10 miles    
Events Rain    
Averages and records for this station are not official NWS values.
T = Trace of Precipitation, MM = Missing Value Source: NWS Daily Summary

Daily Weather History Graph

Daily Weather History Graph

Search for Another Location

Airport or City:

Trip Planner

Search our weather history database for the weather conditions in past years. The results will help you decide how hot, cold, wet, or windy it might be!

Date:

Astronomy

Jul. 17, 2013 Rise Set
Actual Time 6:07 AM MDT 8:30 PM MDT
Civil Twilight 5:37 AM MDT 9:00 PM MDT
Nautical Twilight 5:01 AM MDT 9:36 PM MDT
Astronomical Twilight 4:20 AM MDT 10:16 PM MDT
Moon 3:25 PM MDT (7/17) 1:13 AM MDT (7/17)
Length of Visible Light 15h 22m
Length of Day
14h 23m
Waxing Gibbous, 68% of the Moon is Illuminated
Jul 17
Waxing Gibbous
Jul 22
Full
Jul 29
Last Quarter
Aug 6
New
Aug 14
First Quarter

Hourly Weather History & Observations

Time (MDT) Temp. Dew Point Humidity Pressure Visibility Wind Dir Wind Speed Gust Speed Precip Events Conditions
12:53 AM 64.9 °F 55.9 °F 73% 30.09 in 10.0 mi SE 16.1 mph - 0.00 in Rain Light Rain
1:53 AM 66.0 °F 53.1 °F 63% 30.10 in 10.0 mi East 16.1 mph - 0.00 in Rain Light Rain
2:53 AM 66.0 °F 55.0 °F 68% 30.09 in 10.0 mi ESE 10.4 mph - 0.00 in   Overcast
3:53 AM 64.0 °F 55.0 °F 73% 30.10 in 10.0 mi East 8.1 mph - N/A   Partly Cloudy
4:53 AM 63.0 °F 55.0 °F 75% 30.12 in 10.0 mi East 10.4 mph - N/A   Overcast
5:53 AM 64.9 °F 48.9 °F 56% 30.12 in 10.0 mi East 13.8 mph - N/A   Overcast
6:53 AM 64.9 °F 48.0 °F 54% 30.14 in 10.0 mi East 8.1 mph - N/A   Mostly Cloudy
7:53 AM 68.0 °F 50.0 °F 52% 30.15 in 10.0 mi ESE 10.4 mph - N/A   Scattered Clouds
8:53 AM 69.1 °F 48.0 °F 47% 30.16 in 10.0 mi ESE 9.2 mph 19.6 mph N/A   Clear
9:53 AM 73.0 °F 48.9 °F 42% 30.16 in 10.0 mi East 10.4 mph - N/A   Scattered Clouds
10:53 AM 77.0 °F 48.0 °F 36% 30.14 in 10.0 mi ESE 11.5 mph 18.4 mph N/A   Partly Cloudy
11:53 AM 80.1 °F 46.0 °F 30% 30.12 in 10.0 mi Variable 5.8 mph - N/A   Partly Cloudy
12:53 PM 81.0 °F 46.0 °F 29% 30.12 in 10.0 mi SE 8.1 mph - N/A   Clear
1:53 PM 82.9 °F 45.0 °F 26% 30.08 in 10.0 mi Variable 3.5 mph - N/A   Clear
2:53 PM 84.9 °F 45.0 °F 25% 30.05 in 10.0 mi Variable 4.6 mph - N/A   Clear
3:53 PM 86.0 °F 44.1 °F 23% 30.03 in 10.0 mi SSE 11.5 mph - N/A   Clear
4:53 PM 84.9 °F 43.0 °F 23% 30.02 in 10.0 mi SSE 5.8 mph - N/A   Clear
5:53 PM 87.1 °F 41.0 °F 20% 29.99 in 10.0 mi South 5.8 mph - N/A   Clear
6:53 PM 86.0 °F 39.9 °F 20% 29.98 in 10.0 mi South 9.2 mph - N/A   Clear
7:53 PM 82.9 °F 42.1 °F 24% 29.99 in 10.0 mi WSW 8.1 mph - N/A   Mostly Cloudy
8:53 PM 81.0 °F 42.1 °F 25% 30.02 in 10.0 mi South 9.2 mph 17.3 mph N/A   Scattered Clouds
9:53 PM 79.0 °F 42.1 °F 27% 30.03 in 10.0 mi SSE 13.8 mph 19.6 mph N/A   Clear
10:53 PM 75.9 °F 43.0 °F 31% 30.05 in 10.0 mi ESE 9.2 mph 18.4 mph N/A   Clear
11:53 PM 73.0 °F 44.1 °F 35% 30.07 in 10.0 mi East 5.8 mph - N/A   Clear